This is the latest recevied weather packets stored in our database for station/object EA1AHA-13. If no packets are shown the sender has not sent any weather packets the latest 10 day(s).
| Time | Temp. | Humidity | Pressure | Rain* | Wind** | Luminosity | Snow |
|---|---|---|---|---|---|---|---|
| 1777580190 | 15.56° C | 87% | 1017.3 hPa | 0 mm | - | - | - |
| 1777579566 | 15.56° C | 87% | 1017.3 hPa | 0 mm | - | - | - |
| 1777578990 | 16.11° C | 86% | 1017.3 hPa | 0 mm | - | - | - |
| 1777578366 | 16.11° C | 86% | 1017.2 hPa | 0 mm | - | - | - |
| 1777577790 | 15.56° C | 86% | 1017.4 hPa | 0 mm | - | - | - |
| 1777577166 | 15.56° C | 87% | 1017.2 hPa | 0 mm | - | - | - |
| 1777576589 | 16.11° C | 86% | 1016.9 hPa | 0 mm | - | - | - |
| 1777575966 | 16.11° C | 86% | 1016.6 hPa | 0 mm | - | - | - |
| 1777575390 | 16.11° C | 86% | 1016.8 hPa | 0 mm | - | - | - |
| 1777574765 | 16.11° C | 86% | 1016.8 hPa | 0 mm | - | - | - |
| 1777574190 | 16.11° C | 86% | 1016.8 hPa | 0 mm | - | - | - |
| 1777573566 | 16.11° C | 85% | 1016.6 hPa | 0 mm | - | - | - |
| 1777572991 | 16.11° C | 84% | 1016.7 hPa | 0 mm | - | - | - |
| 1777572367 | 16.11° C | 84% | 1016.7 hPa | 0 mm | - | - | - |
| 1777571790 | 16.67° C | 83% | 1016.5 hPa | 0 mm | - | - | - |
| 1777571166 | 16.11° C | 84% | 1016.5 hPa | 0 mm | - | - | - |
| 1777570589 | 16.11° C | 83% | 1016.4 hPa | 0 mm | - | - | - |
| 1777569966 | 16.11° C | 83% | 1016.7 hPa | 0 mm | - | - | - |
| 1777569390 | 16.11° C | 83% | 1016.3 hPa | 0 mm | - | - | - |
| 1777568766 | 16.67° C | 82% | 1016.5 hPa | 0 mm | - | - | - |
| 1777568190 | 16.67° C | 82% | 1016.5 hPa | 0 mm | - | - | - |
| 1777567566 | 16.67° C | 82% | 1016.3 hPa | 0 mm | - | - | - |
| 1777566990 | 16.67° C | 80% | 1016.3 hPa | 0 mm | - | - | - |
| 1777566366 | 17.22° C | 80% | 1016 hPa | 0 mm | - | - | - |
| 1777565790 | 16.67° C | 81% | 1016.1 hPa | 0 mm | - | - | - |
* Rain latest hour (hover to see other rain measurements)
** Current wind speed in m/s (hover to see current wind gust speed)